sat.trackr.live / text

‹ back to catalog

UNKNOWN

NORAD 87164

UNKNOWN UNKNOWN UNKNOWN

§ Identity

Operator
Country
Launch date
Launch site
Launch vehicle
Mass (kg)
RCS (m²)

External: N2YO · Heavens-Above

§ Orbital elements

Epoch: 2026-05-23T12:04:08.220288Z

Period
98.63 min
Inclination
65.2023°
Eccentricity
0.0112937
Mean motion
14.59956518 rev/d
Perigee alt
613.5 km
Apogee alt
773.2 km
Semi-major
7,071.5 km
B*
4.0344e-4
RAAN
217.2451°
Arg perigee
342.7411°
Mean anomaly
16.9861°
Rev number
65,937

§ Raw data

UNKNOWN1 87164U          26143.50287292  .00001993  00000+0  40344-3 0  99962 87164  65.2023 217.2451 0112937 342.7411  16.9861 14.59956518659377

JSON: /api/v1/satellites/87164 · /tle

For live sub-satellite position, see the globe view (requires WebGL).

§ Visibility from observer

Set your observer location to see the next 7 days of passes ≥ 10°. The values pass through the URL so the page stays shareable.

No JS? Fill the form by hand. The geolocation button needs JavaScript.